Date String (YYYY-MM-DD hh:mm:ss) UTC,Instrument flags,Ambient pressure (hPa),Sample flow (lpm),Bypass flow (lpm),Sample temperature (°C),Ambient temperature (°C),ASC tube jacket temperature (°C),LED temperature (°C),Box temperature (°C),Sample RH (%),Span deviation,Mass concentration (μg/m³),Mass concentration (μg/m³),Mass concentration (μg/m³)
DateTimeUTC,F1_M11,P_M11,Q1_M11,Q2_M11,T1_M11,T2_M11,T3_M11,T4_M11,T5_M11,U1_M11,ZSPAN_M11,X0_M11,X2_M11,X1_M11
2022-10-03 22:00:00,,0828.4,4.99,0.00,29.8,28.8,00.0,38.5,31.8,20.4,0000.0,0007.44,0003.06,0002.42
2022-10-03 22:01:00,,0828.3,5.00,0.00,29.9,28.9,00.0,38.5,31.8,20.1,0000.0,0007.89,0003.05,0002.41
2022-10-03 22:02:00,,0828.3,5.00,0.00,29.9,28.9,00.0,38.5,31.9,19.7,0000.0,0007.89,0003.04,0002.42
2022-10-03 22:03:00,,0828.4,4.99,0.00,29.9,29.0,00.0,38.5,31.9,19.7,0000.0,0007.93,0003.07,0002.43
2022-10-03 22:04:00,,0828.5,5.01,0.00,30.0,29.1,00.0,38.6,31.9,19.9,0000.0,0008.37,0003.08,0002.44
2022-10-03 22:05:00,,0828.3,5.01,0.00,30.0,29.1,00.0,38.6,32.0,19.8,0000.0,0009.25,0003.09,0002.46
2022-10-03 22:06:00,,0828.3,4.99,0.00,30.0,29.2,00.0,38.6,32.0,19.8,0000.0,0009.40,0003.15,0002.49
2022-10-03 22:07:00,,0828.3,5.01,0.00,30.1,29.2,00.0,38.7,32.0,19.5,0000.0,0009.39,0003.16,0002.51
2022-10-03 22:08:00,,0828.3,5.00,0.00,30.1,28.8,00.0,38.7,32.0,19.4,0000.0,0009.32,0003.14,0002.52
2022-10-03 22:09:00,,0828.3,5.00,0.00,30.1,27.2,00.0,38.7,31.8,19.2,0000.0,0009.34,0003.13,0002.52
2022-10-03 22:10:00,,0828.3,5.01,0.00,30.0,26.2,00.0,38.6,31.6,19.3,0000.0,0008.83,0003.14,0002.53
2022-10-03 22:11:00,,0828.3,5.00,0.00,29.9,26.3,00.0,38.6,31.6,19.3,0000.0,0009.11,0003.15,0002.52
2022-10-03 22:12:00,,0828.3,5.00,0.00,29.8,26.6,00.0,38.5,31.4,19.7,0000.0,0008.91,0003.14,0002.51
2022-10-03 22:13:00,,0828.3,5.01,0.00,29.7,27.0,00.0,38.5,31.4,19.3,0000.0,0008.90,0003.13,0002.48
2022-10-03 22:14:00,,0828.3,5.00,0.00,29.7,27.4,00.0,38.5,31.5,19.1,0000.0,0008.93,0003.13,0002.48
2022-10-03 22:15:00,,0828.3,5.01,0.00,29.7,27.7,00.0,38.5,31.5,19.6,0000.0,0008.15,0003.14,0002.48
2022-10-03 22:16:00,,0828.3,4.99,0.00,29.7,28.0,00.0,38.4,31.5,19.5,0000.0,0007.39,0003.16,0002.48
2022-10-03 22:17:00,,0828.4,5.01,0.00,29.7,28.2,00.0,38.4,31.6,19.0,0000.0,0007.18,0003.07,0002.46
2022-10-03 22:18:00,,0828.4,4.99,0.00,29.7,28.3,00.0,38.4,31.6,19.2,0000.0,0007.69,0003.06,0002.45
2022-10-03 22:19:00,,0828.4,5.01,0.00,29.7,28.5,00.0,38.5,31.7,19.2,0000.0,0007.89,0003.12,0002.46
2022-10-03 22:20:00,,0828.5,4.98,0.00,29.8,28.6,00.0,38.5,31.7,19.3,0000.0,0007.79,0003.12,0002.47
2022-10-03 22:21:00,,0828.5,5.01,0.00,29.8,28.7,00.0,38.5,31.7,19.2,0000.0,0007.67,0003.11,0002.46
2022-10-03 22:22:00,,0828.5,4.99,0.00,29.8,28.8,00.0,38.5,31.8,19.3,0000.0,0007.01,0003.07,0002.47
2022-10-03 22:23:00,,0828.5,5.02,0.00,29.8,28.8,00.0,38.5,31.8,19.4,0000.0,0006.54,0003.10,0002.48
2022-10-03 22:24:00,,0828.7,4.99,0.00,29.9,28.9,00.0,38.5,31.8,20.1,0000.0,0006.72,0003.16,0002.53
2022-10-03 22:25:00,,0828.9,5.01,0.00,29.9,29.0,00.0,38.5,31.9,20.3,0000.0,0007.01,0003.19,0002.57
2022-10-03 22:26:00,,0829.0,4.99,0.00,30.0,29.0,00.0,38.6,31.9,20.2,0000.0,0007.59,0003.21,0002.61
2022-10-03 22:27:00,,0829.1,5.00,0.00,30.0,29.1,00.0,38.6,32.0,20.4,0000.0,0007.85,0003.23,0002.64
2022-10-03 22:28:00,,0829.1,5.00,0.00,30.0,29.1,00.0,38.6,32.0,20.9,0000.0,0008.29,0003.29,0002.67
2022-10-03 22:29:00,,0829.1,5.01,0.00,30.0,28.5,00.0,38.6,32.0,21.3,0000.0,0008.05,0003.35,0002.71
2022-10-03 22:30:00,,0828.8,5.00,0.00,30.0,27.1,00.0,38.6,31.8,22.0,0000.0,0007.95,0003.39,0002.76
2022-10-03 22:31:00,,0828.6,5.00,0.00,30.0,26.9,00.0,38.6,31.7,22.8,0000.0,0008.54,0003.45,0002.81
2022-10-03 22:32:00,,0828.4,4.98,0.00,29.9,27.1,00.0,38.6,31.6,23.3,0000.0,0009.37,0003.56,0002.92
2022-10-03 22:33:00,,0828.4,5.01,0.00,29.8,27.4,00.0,38.5,31.6,23.4,0000.0,0010.04,0003.67,0003.02
2022-10-03 22:34:00,,0828.3,5.01,0.00,29.8,27.7,00.0,38.5,31.6,23.9,0000.0,0011.68,0003.83,0003.11
2022-10-03 22:35:00,,0828.3,4.99,0.00,29.8,27.9,00.0,38.5,31.6,24.3,0000.0,0012.79,0004.04,0003.18
2022-10-03 22:36:00,,0828.5,5.00,0.00,29.8,28.0,00.0,38.5,31.6,24.1,0000.0,0013.45,0004.33,0003.28
2022-10-03 22:37:00,,0828.9,5.01,0.00,29.8,28.1,00.0,38.5,31.6,23.6,0000.0,0014.06,0004.66,0003.39
2022-10-03 22:38:00,,0829.1,4.99,0.00,29.8,28.2,00.0,38.5,31.6,23.4,0000.0,0014.35,0004.85,0003.49
2022-10-03 22:39:00,,0828.6,4.99,0.00,29.8,28.3,00.0,38.5,31.6,23.3,0000.0,0014.23,0005.03,0003.58
2022-10-03 22:40:00,,0828.8,5.01,0.00,29.8,28.3,00.0,38.5,31.6,23.4,0000.0,0014.29,0005.11,0003.64
2022-10-03 22:41:00,,0828.9,5.00,0.00,29.8,28.3,00.0,38.5,31.7,23.0,0000.0,0014.32,0005.15,0003.67
2022-10-03 22:42:00,,0829.0,5.00,0.00,29.8,28.4,00.0,38.5,31.7,22.7,0000.0,0014.34,0005.18,0003.70
2022-10-03 22:43:00,,0829.1,5.01,0.00,29.8,28.4,00.0,38.5,31.7,23.1,0000.0,0013.69,0005.19,0003.71
2022-10-03 22:44:00,,0829.2,4.99,0.00,29.8,28.4,00.0,38.5,31.7,23.5,0000.0,0013.33,0005.18,0003.70
2022-10-03 22:45:00,,0829.2,5.02,0.00,29.8,28.4,00.0,38.5,31.7,24.2,0000.0,0012.31,0005.08,0003.69
2022-10-03 22:46:00,,0829.3,4.99,0.00,29.8,28.4,00.0,38.5,31.7,23.7,0000.0,0011.26,0004.90,0003.64
2022-10-03 22:47:00,,0829.2,5.00,0.00,29.8,28.4,00.0,38.5,31.7,23.1,0000.0,0010.59,0004.61,0003.52
2022-10-03 22:48:00,,0829.2,5.00,0.00,29.8,28.4,00.0,38.5,31.7,23.2,0000.0,0009.87,0004.34,0003.41
2022-10-03 22:49:00,,0829.2,4.99,0.00,29.8,28.4,00.0,38.5,31.7,22.9,0000.0,0009.34,0004.20,0003.31
2022-10-03 22:50:00,,0829.4,5.01,0.00,29.8,28.4,00.0,38.5,31.7,22.2,0000.0,0009.00,0004.01,0003.21
2022-10-03 22:51:00,,0829.4,5.01,0.00,29.8,28.4,00.0,38.6,31.7,21.9,0000.0,0008.67,0003.85,0003.10
2022-10-03 22:52:00,,0829.5,4.99,0.00,29.8,28.4,00.0,38.6,31.7,21.8,0000.0,0008.65,0003.78,0002.97
2022-10-03 22:53:00,,0829.5,5.01,0.00,29.8,28.5,00.0,38.6,31.7,22.3,0000.0,0008.90,0003.70,0002.87
2022-10-03 22:54:00,,0829.5,5.00,0.00,29.8,28.5,00.0,38.6,31.7,23.5,0000.0,0008.43,0003.62,0002.74
2022-10-03 22:55:00,,0829.5,5.00,0.00,29.8,28.5,00.0,38.6,31.7,24.0,0000.0,0008.87,0003.56,0002.60
2022-10-03 22:56:00,,0829.5,5.01,0.00,29.8,28.5,00.0,38.6,31.7,23.9,0000.0,0008.50,0003.47,0002.45
2022-10-03 22:57:00,,0829.6,5.00,0.00,29.9,27.5,00.0,38.6,31.7,23.8,0000.0,0008.47,0003.40,0002.35
2022-10-03 22:58:00,,0829.6,5.00,0.00,29.8,26.3,00.0,38.5,31.5,23.0,0000.0,0008.44,0003.34,0002.27
2022-10-03 22:59:00,,0829.5,5.00,0.00,29.7,26.2,00.0,38.5,31.4,22.3,0000.0,0008.19,0003.22,0002.16
